TimeCST,TemperatureF,Dew PointF,Humidity,Sea Level PressureIn,VisibilityMPH,Wind Direction,Wind SpeedMPH,Gust SpeedMPH,PrecipitationIn,Events,Conditions,WindDirDegrees,DateUTC
12:15 AM,46.4,46.4,100,30.00,10.0,West,6.9,-,N/A,Rain,Light Rain,270,2013-02-19 06:15:00
12:55 AM,46.4,46.4,100,29.98,10.0,South,4.6,-,N/A,Rain,Rain,180,2013-02-19 06:55:00
1:15 AM,46.4,46.4,100,29.97,10.0,SSE,8.1,-,N/A,Rain,Rain,160,2013-02-19 07:15:00
1:55 AM,46.4,46.4,100,29.94,10.0,South,11.5,-,N/A,Rain,Light Rain,190,2013-02-19 07:55:00
2:15 AM,46.4,46.4,100,29.93,10.0,SSW,9.2,17.3,N/A,,Drizzle,200,2013-02-19 08:15:00
2:35 AM,46.4,46.4,100,29.94,10.0,SW,6.9,-,N/A,,Light Drizzle,220,2013-02-19 08:35:00
2:55 AM,46.4,46.4,100,29.94,10.0,SSW,8.1,-,N/A,,Overcast,200,2013-02-19 08:55:00
3:15 AM,48.2,46.4,93,29.94,7.0,SW,10.4,-,N/A,,Overcast,220,2013-02-19 09:15:00
3:35 AM,48.2,46.4,93,29.94,7.0,SW,10.4,-,N/A,,Overcast,230,2013-02-19 09:35:00
3:55 AM,48.2,48.2,100,29.95,10.0,WSW,8.1,-,N/A,,Overcast,240,2013-02-19 09:55:00
4:15 AM,48.2,48.2,100,29.97,4.0,WSW,10.4,16.1,N/A,,Overcast,250,2013-02-19 10:15:00
4:35 AM,48.2,48.2,100,29.98,5.0,WNW,13.8,24.2,N/A,,Overcast,300,2013-02-19 10:35:00
4:55 AM,46.4,46.4,100,30.00,4.0,WNW,18.4,-,N/A,,Overcast,300,2013-02-19 10:55:00
5:15 AM,44.6,44.6,100,30.01,10.0,NW,13.8,23.0,N/A,,Overcast,310,2013-02-19 11:15:00
5:35 AM,44.6,42.8,93,30.03,10.0,NW,15.0,19.6,N/A,,Overcast,310,2013-02-19 11:35:00
5:55 AM,42.8,41.0,93,30.05,10.0,WNW,13.8,-,N/A,,Overcast,300,2013-02-19 11:55:00
6:15 AM,42.8,39.2,87,30.06,10.0,WNW,12.7,-,N/A,,Overcast,300,2013-02-19 12:15:00
6:35 AM,42.8,35.6,76,30.07,10.0,NW,18.4,24.2,N/A,,Overcast,320,2013-02-19 12:35:00
6:55 AM,42.8,35.6,76,30.08,10.0,NNW,12.7,18.4,N/A,,Overcast,330,2013-02-19 12:55:00
7:15 AM,42.8,35.6,76,30.09,10.0,NNW,11.5,-,N/A,,Overcast,330,2013-02-19 13:15:00
7:35 AM,42.8,35.6,76,30.11,10.0,NW,9.2,-,N/A,,Overcast,310,2013-02-19 13:35:00
7:55 AM,41.0,33.8,76,30.12,10.0,WNW,12.7,-,N/A,,Mostly Cloudy,300,2013-02-19 13:55:00
8:15 AM,42.8,33.8,70,30.13,10.0,NW,16.1,21.9,N/A,,Clear,310,2013-02-19 14:15:00
8:35 AM,42.8,33.8,70,30.14,10.0,NW,15.0,-,N/A,,Scattered Clouds,310,2013-02-19 14:35:00
9:15 AM,44.6,33.8,66,30.15,10.0,NW,11.5,17.3,N/A,,Scattered Clouds,320,2013-02-19 15:15:00
9:35 AM,44.6,33.8,66,30.16,10.0,NW,16.1,19.6,N/A,,Clear,310,2013-02-19 15:35:00
9:55 AM,44.6,33.8,66,30.17,10.0,West,11.5,-,N/A,,Clear,280,2013-02-19 15:55:00
10:15 AM,44.6,32.0,61,30.17,10.0,WNW,13.8,-,N/A,,Clear,300,2013-02-19 16:15:00
10:35 AM,44.6,32.0,61,30.18,10.0,WNW,15.0,19.6,N/A,,Clear,290,2013-02-19 16:35:00
10:55 AM,46.4,32.0,57,30.18,10.0,WNW,12.7,16.1,N/A,,Clear,300,2013-02-19 16:55:00
11:15 AM,46.4,32.0,57,30.18,10.0,NW,12.7,19.6,N/A,,Clear,310,2013-02-19 17:15:00
11:35 AM,46.4,30.2,53,30.17,10.0,WNW,11.5,18.4,N/A,,Clear,300,2013-02-19 17:35:00
11:55 AM,46.4,30.2,53,30.18,10.0,WNW,11.5,19.6,N/A,,Clear,300,2013-02-19 17:55:00
12:15 PM,48.2,28.4,46,30.17,10.0,WNW,12.7,23.0,N/A,,Clear,290,2013-02-19 18:15:00
12:35 PM,48.2,26.6,43,30.16,10.0,WNW,10.4,25.3,N/A,,Clear,290,2013-02-19 18:35:00
12:55 PM,48.2,28.4,46,30.16,10.0,WNW,11.5,24.2,N/A,,Clear,290,2013-02-19 18:55:00
1:15 PM,50.0,26.6,40,30.16,10.0,WNW,17.3,24.2,N/A,,Clear,290,2013-02-19 19:15:00
1:35 PM,50.0,26.6,40,30.16,10.0,WNW,15.0,21.9,N/A,,Clear,300,2013-02-19 19:35:00
1:55 PM,50.0,23.0,35,30.16,10.0,WNW,17.3,24.2,N/A,,Clear,290,2013-02-19 19:55:00
2:15 PM,50.0,21.2,32,30.17,10.0,WNW,17.3,25.3,N/A,,Clear,290,2013-02-19 20:15:00
2:35 PM,50.0,23.0,35,30.17,10.0,WNW,17.3,25.3,N/A,,Clear,300,2013-02-19 20:35:00
2:55 PM,50.0,19.4,30,30.16,10.0,West,20.7,-,N/A,,Clear,280,2013-02-19 20:55:00
3:15 PM,50.0,21.2,32,30.17,10.0,WNW,15.0,25.3,N/A,,Clear,290,2013-02-19 21:15:00
3:35 PM,50.0,21.2,32,30.17,10.0,WNW,15.0,23.0,N/A,,Clear,300,2013-02-19 21:35:00
3:55 PM,50.0,19.4,30,30.18,10.0,WNW,15.0,21.9,N/A,,Clear,290,2013-02-19 21:55:00
4:15 PM,50.0,19.4,30,30.18,10.0,WNW,16.1,23.0,N/A,,Clear,290,2013-02-19 22:15:00
4:35 PM,48.2,17.6,30,30.19,10.0,WNW,16.1,20.7,N/A,,Clear,290,2013-02-19 22:35:00
5:15 PM,46.4,17.6,32,30.19,10.0,NW,16.1,19.6,N/A,,Clear,310,2013-02-19 23:15:00
5:35 PM,44.6,19.4,37,30.20,10.0,NW,11.5,-,N/A,,Clear,310,2013-02-19 23:35:00
6:35 PM,39.2,21.2,49,30.21,10.0,WNW,5.8,-,N/A,,Clear,300,2013-02-20 00:35:00
6:55 PM,39.2,21.2,49,30.21,10.0,WNW,3.5,-,N/A,,Clear,290,2013-02-20 00:55:00
7:35 PM,35.6,24.8,65,30.22,10.0,WNW,3.5,-,N/A,,Clear,290,2013-02-20 01:35:00
7:55 PM,35.6,23.0,60,30.22,10.0,NW,6.9,-,N/A,,Clear,320,2013-02-20 01:55:00
8:15 PM,35.6,24.8,65,30.23,10.0,NW,6.9,-,N/A,,Clear,320,2013-02-20 02:15:00
8:35 PM,33.8,24.8,70,30.24,10.0,NW,6.9,-,N/A,,Clear,320,2013-02-20 02:35:00
8:55 PM,33.8,24.8,70,30.26,10.0,NW,6.9,-,N/A,,Clear,320,2013-02-20 02:55:00
9:15 PM,33.8,26.6,75,30.27,10.0,Calm,Calm,-,N/A,,Clear,0,2013-02-20 03:15:00
9:35 PM,32.0,26.6,80,30.26,10.0,Calm,Calm,-,N/A,,Clear,0,2013-02-20 03:35:00
9:55 PM,32.0,26.6,80,30.26,10.0,Calm,Calm,-,N/A,,Clear,0,2013-02-20 03:55:00
10:15 PM,32.0,26.6,80,30.26,10.0,Calm,Calm,-,N/A,,Clear,0,2013-02-20 04:15:00
10:35 PM,32.0,26.6,80,30.26,10.0,Calm,Calm,-,N/A,,Clear,0,2013-02-20 04:35:00
10:55 PM,30.2,26.6,86,30.26,10.0,Calm,Calm,-,N/A,,Clear,0,2013-02-20 04:55:00
11:15 PM,30.2,26.6,86,30.26,10.0,Calm,Calm,-,N/A,,Clear,0,2013-02-20 05:15:00
11:35 PM,30.2,26.6,86,30.26,10.0,Calm,Calm,-,N/A,,Clear,0,2013-02-20 05:35:00
11:55 PM,30.2,26.6,86,30.26,10.0,Calm,Calm,-,N/A,,Clear,0,2013-02-20 05:55:00